Weather History for Oskaloosa, IA

Change the Weather History Date:

Sunday, November 4, 2012

  Actual Average (KOTM) Record (KOTM)
Temperature  
Mean Temperature 41 °F 45 °F  
Max Temperature 49 °F 55 °F 76 °F (1978)
Min Temperature 33 °F 35 °F 6 °F (1991)
Degree Days  
Heating Degree Days 24 20  
Month to date heating degree days 77  
Since 1 July heating degree days 601  
Cooling Degree Days 0 0  
Month to date cooling degree days 0  
Year to date cooling degree days 938  
Moisture  
Dew Point 35 °F    
Average Humidity 79    
Maximum Humidity 88    
Minimum Humidity 63    
Precipitation  
Precipitation 0.00 in 0.09 in 2.25 in (1938)
Month to date precipitation 0.37  
Year to date precipitation 33.69  
Sea Level Pressure  
Sea Level Pressure 30.18 in    
Wind  
Wind Speed 6 mph (SSE)    
Max Wind Speed 12 mph    
Max Gust Speed -    
Visibility 8 miles    
Events Rain    
T = Trace of Precipitation, MM = Missing Value Source: NWS Daily Summary

Daily Weather History Graph

Daily Weather History Graph

Search for Another Location

Airport:

Trip Planner

Search our weather history database for the weather conditions in past years. The results will help you decide how hot, cold, wet, or windy it might be!

Date:

Astronomy

Nov. 04, 2012 Rise Set
Actual Time 6:45 AM CST 5:01 PM CST
Civil Twilight 6:16 AM CST 5:30 PM CST
Nautical Twilight 5:43 AM CST 6:02 PM CST
Astronomical Twilight 5:11 AM CST 6:34 PM CST
Moon 9:39 PM CST (11/4) 11:30 AM CST (11/4)
Length of Visible Light 11h 13m
Length of Day
10h 15m
Waning Gibbous, 72% of the Moon is Illuminated
Nov 4
Waning Gibbous
Nov 6
Last Quarter
Nov 13
New
Nov 20
First Quarter
Nov 28
Full

Hourly Weather History & Observations

Time (CST) Temp. Windchill Dew Point Humidity Pressure Visibility Wind Dir Wind Speed Gust Speed Precip Events Conditions
12:15 AM 34.9 °F 30.8 °F 29.3 °F 80% 30.21 in 10.0 mi SE 4.6 mph - N/A   Mostly Cloudy
12:35 AM 35.2 °F 31.2 °F 29.3 °F 79% 30.20 in 10.0 mi SSE 4.6 mph - N/A   Mostly Cloudy
12:55 AM 34.7 °F 30.6 °F 29.3 °F 81% 30.21 in 10.0 mi SSE 4.6 mph - N/A   Scattered Clouds
1:15 AM 35.4 °F 30.5 °F 29.7 °F 80% 30.21 in 10.0 mi SSE 5.8 mph - N/A   Scattered Clouds
1:35 AM 34.9 °F 30.8 °F 29.8 °F 82% 30.22 in 10.0 mi SSE 4.6 mph - N/A   Scattered Clouds
1:55 AM 34.7 °F 30.6 °F 29.7 °F 82% 30.22 in 10.0 mi SSE 4.6 mph - N/A   Scattered Clouds
1:15 AM 33.6 °F 28.4 °F 29.8 °F 86% 30.21 in 7.0 mi SSE 5.8 mph - N/A   Overcast
1:35 AM 33.8 °F 28.6 °F 30.0 °F 86% 30.21 in 7.0 mi SSE 5.8 mph - N/A   Mostly Cloudy
1:55 AM 33.3 °F 27.1 °F 29.8 °F 87% 30.21 in 5.0 mi SSE 6.9 mph - N/A   Scattered Clouds
2:15 AM 34.0 °F 31.0 °F 30.6 °F 87% 30.22 in 5.0 mi SSE 3.5 mph - N/A   Mostly Cloudy
2:35 AM 34.7 °F - 30.7 °F 85% 30.22 in 7.0 mi Calm Calm - N/A   Scattered Clouds
2:55 AM 34.9 °F 30.8 °F 31.1 °F 86% 30.22 in 7.0 mi SSE 4.6 mph - N/A   Mostly Cloudy
3:15 AM 35.8 °F 33.0 °F 31.6 °F 85% 30.21 in 7.0 mi SE 3.5 mph - N/A   Mostly Cloudy
3:35 AM 35.4 °F - 31.3 °F 85% 30.22 in 7.0 mi Calm Calm - N/A   Mostly Cloudy
3:55 AM 36.5 °F 32.7 °F 32.0 °F 84% 30.22 in 7.0 mi SE 4.6 mph - N/A   Overcast
4:15 AM 36.7 °F 34.1 °F 32.0 °F 83% 30.22 in 7.0 mi ESE 3.5 mph - N/A   Overcast
4:35 AM 36.9 °F - 32.2 °F 83% 30.22 in 7.0 mi Calm Calm - N/A   Mostly Cloudy
4:55 AM 36.9 °F 33.1 °F 32.2 °F 83% 30.22 in 7.0 mi SE 4.6 mph - N/A   Scattered Clouds
5:15 AM 36.7 °F 34.1 °F 32.2 °F 84% 30.22 in 7.0 mi SE 3.5 mph - N/A   Mostly Cloudy
5:35 AM 36.9 °F 33.1 °F 32.9 °F 86% 30.22 in 5.0 mi SE 4.6 mph - N/A   Overcast
5:55 AM 37.0 °F 33.3 °F 32.9 °F 85% 30.22 in 7.0 mi SSE 4.6 mph - N/A Rain Light Rain
6:15 AM 37.4 °F 34.9 °F 33.3 °F 85% 30.22 in 7.0 mi SE 3.5 mph - N/A Rain Light Rain
6:35 AM 37.2 °F 34.7 °F 33.4 °F 86% 30.23 in 7.0 mi SSE 3.5 mph - N/A Rain Light Rain
6:55 AM 37.4 °F 34.9 °F 33.8 °F 87% 30.23 in 5.0 mi SE 3.5 mph - N/A   Light Drizzle
7:15 AM 37.4 °F - 34.0 °F 87% 30.23 in 5.0 mi Calm Calm - N/A   Overcast
7:35 AM 37.8 °F - 34.5 °F 88% 30.24 in 4.0 mi Calm Calm - N/A   Overcast
7:55 AM 38.1 °F 34.6 °F 34.7 °F 87% 30.23 in 5.0 mi ESE 4.6 mph - N/A   Overcast
8:15 AM 38.7 °F 35.2 °F 35.2 °F 87% 30.24 in 5.0 mi SE 4.6 mph - N/A   Overcast
8:35 AM 39.6 °F 35.4 °F 35.8 °F 86% 30.23 in 7.0 mi SSE 5.8 mph - N/A   Overcast
8:55 AM 40.6 °F 36.7 °F 36.7 °F 86% 30.23 in 7.0 mi South 5.8 mph - N/A   Overcast
9:15 AM 41.5 °F 37.1 °F 37.4 °F 85% 30.23 in 7.0 mi South 6.9 mph - N/A   Overcast
9:35 AM 42.8 °F 38.6 °F 37.6 °F 82% 30.23 in 10.0 mi South 6.9 mph - N/A   Overcast
9:55 AM 43.7 °F 39.7 °F 37.2 °F 78% 30.23 in 10.0 mi South 6.9 mph - N/A   Overcast
10:15 AM 44.6 °F 40.2 °F 37.9 °F 77% 30.22 in 10.0 mi South 8.1 mph - N/A   Overcast
10:35 AM 45.3 °F 40.6 °F 37.4 °F 74% 30.22 in 10.0 mi South 9.2 mph - N/A   Overcast
10:55 AM 46.4 °F 42.4 °F 37.6 °F 71% 30.22 in 10.0 mi South 8.1 mph - N/A   Overcast
11:15 AM 46.4 °F 42.4 °F 37.4 °F 71% 30.22 in 10.0 mi South 8.1 mph - N/A   Overcast
11:35 AM 47.5 °F - 37.9 °F 69% 30.20 in 10.0 mi South 8.1 mph - N/A   Overcast
11:55 AM 48.2 °F - 37.4 °F 66% 30.20 in 10.0 mi South 6.9 mph - N/A   Overcast
12:15 PM 48.7 °F - 37.6 °F 65% 30.19 in 10.0 mi South 5.8 mph - N/A   Overcast
12:35 PM 48.9 °F - 37.4 °F 64% 30.18 in 10.0 mi South 8.1 mph - N/A   Overcast
12:55 PM 49.1 °F - 37.4 °F 64% 30.17 in 10.0 mi South 5.8 mph - N/A   Overcast
1:15 PM 49.5 °F - 37.4 °F 63% 30.17 in 10.0 mi South 5.8 mph - N/A   Overcast
1:35 PM 49.1 °F - 37.4 °F 64% 30.15 in 10.0 mi SSE 9.2 mph - N/A   Overcast
1:55 PM 48.6 °F - 37.0 °F 64% 30.15 in 10.0 mi SSE 8.1 mph - N/A   Overcast
2:15 PM 49.3 °F - 37.0 °F 63% 30.15 in 10.0 mi South 8.1 mph - N/A   Overcast
2:35 PM 49.1 °F - 37.4 °F 64% 30.15 in 10.0 mi SSE 9.2 mph - N/A   Overcast
2:55 PM 48.6 °F - 37.2 °F 65% 30.14 in 10.0 mi SSE 9.2 mph - N/A   Overcast
3:15 PM 48.0 °F - 37.6 °F 67% 30.14 in 10.0 mi SSE 10.4 mph - N/A   Overcast
3:35 PM 47.5 °F - 37.6 °F 69% 30.14 in 10.0 mi SSE 11.5 mph - N/A Rain Light Rain
3:55 PM 47.3 °F - 37.6 °F 69% 30.13 in 10.0 mi SE 9.2 mph - N/A   Overcast
4:15 PM 47.1 °F - 37.2 °F 68% 30.13 in 10.0 mi SSE 8.1 mph - N/A   Overcast
4:35 PM 46.4 °F 41.9 °F 37.8 °F 72% 30.13 in 10.0 mi SE 9.2 mph - N/A Rain Light Rain
4:55 PM 45.0 °F 40.6 °F 38.3 °F 77% 30.12 in 10.0 mi SE 8.1 mph - N/A   Overcast
5:15 PM 44.8 °F 39.4 °F 37.8 °F 76% 30.12 in 10.0 mi SE 10.4 mph - N/A   Overcast
5:35 PM 44.6 °F 39.7 °F 37.6 °F 76% 30.12 in 10.0 mi SE 9.2 mph - N/A Rain Light Rain
5:55 PM 43.9 °F 39.3 °F 37.8 °F 79% 30.13 in 10.0 mi SE 8.1 mph - N/A Rain Light Rain
6:15 PM 43.3 °F 38.6 °F 37.6 °F 80% 30.14 in 10.0 mi SE 8.1 mph - N/A   Overcast
6:35 PM 43.0 °F 38.8 °F 37.6 °F 81% 30.14 in 10.0 mi SE 6.9 mph - N/A   Overcast
6:55 PM 42.8 °F 38.6 °F 37.8 °F 82% 30.15 in 10.0 mi SSE 6.9 mph - N/A   Overcast
7:15 PM 42.8 °F 38.6 °F 37.8 °F 82% 30.14 in 10.0 mi SSE 6.9 mph - N/A   Overcast
7:35 PM 42.8 °F 38.6 °F 37.8 °F 82% 30.14 in 10.0 mi SE 6.9 mph - N/A   Overcast
7:55 PM 42.8 °F 38.6 °F 37.6 °F 82% 30.14 in 10.0 mi SE 6.9 mph - N/A   Overcast
8:15 PM 43.0 °F 38.8 °F 37.4 °F 81% 30.14 in 10.0 mi ESE 6.9 mph - N/A   Overcast
8:35 PM 42.8 °F 38.0 °F 37.4 °F 81% 30.13 in 7.0 mi SE 8.1 mph - N/A   Overcast
8:55 PM 42.8 °F 38.0 °F 37.4 °F 81% 30.13 in 7.0 mi SE 8.1 mph - N/A   Overcast
9:15 PM 42.4 °F 37.5 °F 37.4 °F 82% 30.13 in 7.0 mi SE 8.1 mph - N/A   Overcast
9:35 PM 42.3 °F 37.3 °F 37.4 °F 83% 30.13 in 7.0 mi ESE 8.1 mph - N/A   Overcast
9:55 PM 42.1 °F 37.1 °F 37.4 °F 83% 30.13 in 7.0 mi ESE 8.1 mph - N/A Rain Light Rain
10:15 PM 41.9 °F 36.3 °F 37.4 °F 84% 30.13 in 7.0 mi ESE 9.2 mph - N/A   Light Drizzle
10:35 PM 41.9 °F 36.3 °F 37.4 °F 84% 30.13 in 7.0 mi ESE 9.2 mph - N/A   Light Drizzle
10:55 PM 41.9 °F 36.9 °F 37.6 °F 85% 30.12 in 5.0 mi ESE 8.1 mph - N/A Rain Light Rain